Weather data: current sndag, 2021-09-26 15:00
Date Time Temp. Inne Temp. Ute Temp Altan Solmtare Temp. 4 Temp. 5 Temp. 6 Temp. 7 Temp. 9 RF Ute RF Alt Hum. 3 Hum. 4 RelFuktLekst Rain Wind Direction Direction Sunshine Dew point Wind chill Wind gust
2021-09-26 15:00 22,0 C 19,6 C 24,2 C 52,2 C 0,0 C 0,0 C 19,3 C 18,8 C 0,0 C 63 % 57 % 61 % 0 % 0 % 0,0 mm 1,8 m/s (2 Bft) S-SE 157 0 min 12,4 C 19,6 C 1,5 m/s (1 Bft)
2021-09-26 14:55 22,0 C 19,7 C 24,2 C 52,3 C 0,0 C 0,0 C 19,5 C 19,0 C 0,0 C 63 % 57 % 61 % 0 % 0 % 0,0 mm 1,7 m/s (2 Bft) E-NE 67 0 min 12,5 C 19,7 C 2,9 m/s (2 Bft)
2021-09-26 14:50 22,0 C 19,6 C 24,2 C 52,7 C 0,0 C 0,0 C 19,4 C 18,9 C 0,0 C 62 % 57 % 62 % 0 % 0 % 0,0 mm 1,8 m/s (2 Bft) E-SE 112 0 min 12,1 C 19,6 C 2,3 m/s (2 Bft)
2021-09-26 14:45 22,0 C 19,5 C 24,1 C 52,4 C 0,0 C 0,0 C 19,3 C 18,8 C 0,0 C 63 % 57 % 61 % 0 % 0 % 0,0 mm 1,8 m/s (2 Bft) W-NW 292 0 min 12,3 C 19,5 C 1,6 m/s (2 Bft)
2021-09-26 14:40 22,0 C 19,6 C 24,1 C 52,3 C 0,0 C 0,0 C 19,4 C 18,9 C 0,0 C 63 % 57 % 61 % 0 % 0 % 0,0 mm 1,9 m/s (2 Bft) E-NE 67 0 min 12,4 C 19,6 C 2,7 m/s (2 Bft)
2021-09-26 14:35 22,0 C 19,5 C 24,0 C 52,0 C 0,0 C 0,0 C 19,2 C 18,6 C 0,0 C 63 % 57 % 61 % 0 % 0 % 0,0 mm 2,1 m/s (2 Bft) E-NE 67 0 min 12,3 C 19,5 C 2,2 m/s (2 Bft)
2021-09-26 14:30 22,0 C 19,3 C 24,0 C 52,0 C 0,0 C 0,0 C 19,0 C 18,4 C 0,0 C 63 % 57 % 61 % 0 % 0 % 0,0 mm 2,1 m/s (2 Bft) NE 45 0 min 12,1 C 19,3 C 2,3 m/s (2 Bft)
2021-09-26 14:25 22,0 C 19,2 C 24,1 C 52,1 C 0,0 C 0,0 C 18,9 C 18,3 C 0,0 C 63 % 57 % 61 % 0 % 0 % 0,0 mm 1,9 m/s (2 Bft) NE 45 0 min 12,0 C 19,2 C 2,8 m/s (2 Bft)
2021-09-26 14:20 22,0 C 19,4 C 24,1 C 52,0 C 0,0 C 0,0 C 19,1 C 18,4 C 0,0 C 63 % 57 % 61 % 0 % 0 % 0,0 mm 1,9 m/s (2 Bft) E-NE 67 0 min 12,2 C 19,4 C 1,4 m/s (1 Bft)
2021-09-26 14:15 22,0 C 19,5 C 24,2 C 52,0 C 0,0 C 0,0 C 19,2 C 18,5 C 0,0 C 63 % 57 % 61 % 0 % 0 % 0,0 mm 1,9 m/s (2 Bft) E 90 0 min 12,3 C 19,5 C 1,6 m/s (1 Bft)
2021-09-26 14:10 22,0 C 19,6 C 24,2 C 52,3 C 0,0 C 0,0 C 19,3 C 18,7 C 0,0 C 62 % 58 % 61 % 0 % 0 % 0,0 mm 1,9 m/s (2 Bft) E-NE 67 0 min 12,1 C 19,6 C 2,6 m/s (2 Bft)
2021-09-26 14:05 22,0 C 19,6 C 24,1 C 52,2 C 0,0 C 0,0 C 19,3 C 18,6 C 0,0 C 63 % 57 % 61 % 0 % 0 % 0,0 mm 1,7 m/s (2 Bft) E-NE 67 0 min 12,4 C 19,6 C 1,1 m/s (1 Bft)
2021-09-26 14:00 22,0 C 19,5 C 24,3 C 52,3 C 0,0 C 0,0 C 19,2 C 18,6 C 0,0 C 63 % 58 % 61 % 0 % 0 % 0,0 mm 1,7 m/s (2 Bft) E-NE 67 0 min 12,3 C 19,5 C 1,8 m/s (2 Bft)
2021-09-26 13:55 22,0 C 19,4 C 24,3 C 52,1 C 0,0 C 0,0 C 19,0 C 18,2 C 0,0 C 63 % 58 % 61 % 0 % 0 % 0,0 mm 1,7 m/s (2 Bft) N-NE 22 0 min 12,2 C 19,4 C 2,1 m/s (2 Bft)
2021-09-26 13:50 22,0 C 19,3 C 24,3 C 52,0 C 0,0 C 0,0 C 18,9 C 18,1 C 0,0 C 63 % 58 % 61 % 0 % 0 % 0,0 mm 1,7 m/s (2 Bft) NE 45 0 min 12,1 C 19,3 C 1,3 m/s (1 Bft)
2021-09-26 13:45 22,0 C 19,3 C 24,3 C 52,4 C 0,0 C 0,0 C 18,9 C 18,2 C 0,0 C 63 % 58 % 61 % 0 % 0 % 0,0 mm 1,8 m/s (2 Bft) E-NE 67 0 min 12,1 C 19,3 C 2,4 m/s (2 Bft)
2021-09-26 13:40 22,0 C 19,4 C 24,4 C 52,3 C 0,0 C 0,0 C 19,1 C 18,4 C 0,0 C 63 % 58 % 61 % 0 % 0 % 0,0 mm 1,8 m/s (2 Bft) E-SE 112 0 min 12,2 C 19,4 C 1,8 m/s (2 Bft)
2021-09-26 13:35 22,0 C 19,7 C 24,4 C 52,8 C 0,0 C 0,0 C 19,4 C 18,7 C 0,0 C 63 % 58 % 62 % 0 % 0 % 0,0 mm 1,7 m/s (2 Bft) E-NE 67 0 min 12,5 C 19,7 C 2,7 m/s (2 Bft)
2021-09-26 13:30 22,1 C 19,7 C 24,4 C 52,2 C 0,0 C 0,0 C 19,4 C 18,7 C 0,0 C 63 % 58 % 61 % 0 % 0 % 0,0 mm 1,9 m/s (2 Bft) S-SE 157 0 min 12,5 C 19,7 C 1,9 m/s (2 Bft)
2021-09-26 13:25 22,1 C 19,7 C 24,5 C 52,4 C 0,0 C 0,0 C 19,4 C 18,7 C 0,0 C 63 % 58 % 61 % 0 % 0 % 0,0 mm 2,3 m/s (2 Bft) E-NE 67 0 min 12,5 C 19,7 C 1,5 m/s (1 Bft)
2021-09-26 13:20 22,1 C 19,7 C 24,6 C 52,2 C 0,0 C 0,0 C 19,5 C 19,1 C 0,0 C 62 % 59 % 61 % 0 % 0 % 0,0 mm 2,0 m/s (2 Bft) E 90 0 min 12,2 C 19,7 C 2,8 m/s (2 Bft)
2021-09-26 13:15 22,1 C 20,1 C 24,5 C 52,9 C 0,0 C 0,0 C 20,0 C 19,7 C 0,0 C 62 % 59 % 62 % 0 % 0 % 0,0 mm 1,6 m/s (2 Bft) E-NE 67 0 min 12,6 C 20,1 C 2,7 m/s (2 Bft)
2021-09-26 13:10 22,1 C 20,2 C 24,5 C 52,8 C 0,0 C 0,0 C 20,0 C 19,6 C 0,0 C 62 % 59 % 62 % 0 % 0 % 0,0 mm 1,7 m/s (2 Bft) E-NE 67 0 min 12,7 C 20,2 C 2,1 m/s (2 Bft)
2021-09-26 13:05 22,1 C 20,1 C 24,5 C 52,0 C 0,0 C 0,0 C 19,9 C 19,5 C 0,0 C 62 % 59 % 61 % 0 % 0 % 0,0 mm 1,7 m/s (2 Bft) E-NE 67 0 min 12,6 C 20,1 C 1,7 m/s (2 Bft)
2021-09-26 13:00 22,1 C 20,0 C 24,4 C 52,2 C 0,0 C 0,0 C 19,8 C 19,3 C 0,0 C 63 % 59 % 61 % 0 % 0 % 0,0 mm 1,7 m/s (2 Bft) E 90 0 min 12,7 C 20,0 C 1,1 m/s (1 Bft)
2021-09-26 12:55 22,1 C 19,9 C 24,4 C 52,3 C 0,0 C 0,0 C 19,6 C 19,1 C 0,0 C 63 % 59 % 61 % 0 % 0 % 0,0 mm 1,6 m/s (2 Bft) SE 135 0 min 12,6 C 19,9 C 2,6 m/s (2 Bft)
2021-09-26 12:50 22,1 C 19,9 C 24,4 C 52,6 C 0,0 C 0,0 C 19,5 C 18,8 C 0,0 C 64 % 59 % 62 % 0 % 0 % 0,0 mm 1,5 m/s (1 Bft) E 90 0 min 12,9 C 19,9 C 1,3 m/s (1 Bft)
2021-09-26 12:45 22,1 C 19,9 C 24,4 C 52,2 C 0,0 C 0,0 C 19,5 C 18,7 C 0,0 C 63 % 60 % 61 % 0 % 0 % 0,0 mm 2,1 m/s (2 Bft) E-SE 112 0 min 12,6 C 19,9 C 1,9 m/s (2 Bft)
2021-09-26 12:40 22,1 C 19,9 C 24,3 C 52,7 C 0,0 C 0,0 C 19,5 C 18,7 C 0,0 C 63 % 60 % 62 % 0 % 0 % 0,0 mm 2,1 m/s (2 Bft) E-SE 112 0 min 12,6 C 19,9 C 3,8 m/s (3 Bft)
2021-09-26 12:35 22,1 C 20,0 C 24,3 C 51,9 C 0,0 C 0,0 C 19,6 C 18,7 C 0,0 C 63 % 60 % 60 % 0 % 0 % 0,0 mm 1,9 m/s (2 Bft) E-SE 112 0 min 12,7 C 20,0 C 3,7 m/s (3 Bft)
2021-09-26 12:30 22,1 C 20,0 C 24,3 C 52,0 C 0,0 C 0,0 C 19,6 C 18,8 C 0,0 C 63 % 60 % 61 % 0 % 0 % 0,0 mm 1,8 m/s (2 Bft) E-SE 112 0 min 12,7 C 20,0 C 1,1 m/s (1 Bft)
2021-09-26 12:25 22,0 C 20,1 C 24,1 C 52,3 C 0,0 C 0,0 C 19,8 C 19,2 C 0,0 C 62 % 61 % 61 % 0 % 0 % 0,0 mm 1,9 m/s (2 Bft) E 90 0 min 12,6 C 20,1 C 2,2 m/s (2 Bft)
2021-09-26 12:20 22,0 C 20,1 C 24,1 C 52,0 C 0,0 C 0,0 C 20,0 C 19,7 C 0,0 C 62 % 61 % 61 % 0 % 0 % 0,0 mm 2,0 m/s (2 Bft) N-NE 22 0 min 12,6 C 20,1 C 0,7 m/s (1 Bft)
2021-09-26 12:15 22,0 C 20,8 C 23,9 C 53,0 C 0,0 C 0,0 C 21,3 C 21,3 C 0,0 C 61 % 62 % 62 % 0 % 0 % 0,0 mm 2,1 m/s (2 Bft) E-SE 112 0 min 13,0 C 20,8 C 2,6 m/s (2 Bft)
2021-09-26 12:10 22,0 C 20,9 C 23,6 C 52,4 C 0,0 C 0,0 C 21,5 C 21,5 C 0,0 C 61 % 62 % 61 % 0 % 0 % 0,0 mm 1,9 m/s (2 Bft) E-NE 67 0 min 13,1 C 20,9 C 1,7 m/s (2 Bft)
2021-09-26 12:05 21,9 C 20,7 C 23,2 C 52,4 C 0,0 C 0,0 C 21,5 C 21,5 C 0,0 C 61 % 62 % 61 % 0 % 0 % 0,0 mm 1,7 m/s (2 Bft) E-SE 112 0 min 12,9 C 20,7 C 3,1 m/s (2 Bft)
2021-09-26 12:00 21,9 C 20,5 C 23,0 C 52,2 C 0,0 C 0,0 C 21,2 C 21,2 C 0,0 C 62 % 63 % 61 % 0 % 0 % 0,0 mm 1,9 m/s (2 Bft) S-SE 157 0 min 13,0 C 20,5 C 1,6 m/s (2 Bft)
2021-09-26 11:55 21,9 C 20,3 C 22,6 C 52,6 C 0,0 C 0,0 C 21,1 C 21,1 C 0,0 C 63 % 63 % 62 % 0 % 0 % 0,0 mm 1,8 m/s (2 Bft) E-NE 67 0 min 13,0 C 20,3 C 2,6 m/s (2 Bft)
2021-09-26 11:50 21,8 C 20,3 C 22,5 C 52,2 C 0,0 C 0,0 C 21,0 C 21,0 C 0,0 C 64 % 63 % 61 % 0 % 0 % 0,0 mm 1,9 m/s (2 Bft) E-NE 67 0 min 13,3 C 20,3 C 1,9 m/s (2 Bft)
2021-09-26 11:45 21,8 C 20,1 C 22,1 C 52,3 C 0,0 C 0,0 C 20,7 C 20,7 C 0,0 C 64 % 63 % 61 % 0 % 0 % 0,0 mm 2,1 m/s (2 Bft) E-NE 67 0 min 13,1 C 20,1 C 2,6 m/s (2 Bft)
2021-09-26 11:40 21,8 C 19,9 C 21,8 C 52,1 C 0,0 C 0,0 C 20,9 C 20,9 C 0,0 C 64 % 63 % 61 % 0 % 0 % 0,0 mm 1,8 m/s (2 Bft) E-NE 67 0 min 12,9 C 19,9 C 2,5 m/s (2 Bft)
2021-09-26 11:35 21,7 C 19,7 C 21,4 C 52,3 C 0,0 C 0,0 C 20,4 C 20,4 C 0,0 C 65 % 63 % 61 % 0 % 0 % 0,0 mm 1,7 m/s (2 Bft) N-NE 22 0 min 12,9 C 19,7 C 0,0 m/s (0 Bft)
2021-09-26 11:30 21,7 C 19,6 C 21,3 C 51,7 C 0,0 C 0,0 C 20,3 C 20,3 C 0,0 C 65 % 64 % 60 % 0 % 0 % 0,0 mm 1,9 m/s (2 Bft) E-NE 67 0 min 12,8 C 19,6 C 2,0 m/s (2 Bft)
2021-09-26 11:25 21,6 C 19,4 C 20,9 C 52,0 C 0,0 C 0,0 C 20,2 C 20,2 C 0,0 C 66 % 64 % 61 % 0 % 0 % 0,0 mm 2,0 m/s (2 Bft) E-NE 67 0 min 12,9 C 19,4 C 1,3 m/s (1 Bft)
2021-09-26 11:20 21,6 C 19,2 C 20,6 C 51,7 C 0,0 C 0,0 C 20,1 C 20,1 C 0,0 C 66 % 64 % 60 % 0 % 0 % 0,0 mm 2,0 m/s (2 Bft) NE 45 0 min 12,7 C 19,2 C 3,6 m/s (3 Bft)
2021-09-26 11:15 21,6 C 19,1 C 20,3 C 51,9 C 0,0 C 0,0 C 20,2 C 20,2 C 0,0 C 66 % 65 % 60 % 0 % 0 % 0,0 mm 1,6 m/s (2 Bft) E-NE 67 0 min 12,6 C 19,1 C 2,9 m/s (2 Bft)
2021-09-26 11:10 21,6 C 19,1 C 20,0 C 52,0 C 0,0 C 0,0 C 20,4 C 20,4 C 0,0 C 66 % 64 % 61 % 0 % 0 % 0,0 mm 0,7 m/s (1 Bft) E-SE 112 0 min 12,6 C 19,1 C 3,2 m/s (2 Bft)
2021-09-26 11:05 21,5 C 19,2 C 19,6 C 51,9 C 0,0 C 0,0 C 21,0 C 21,0 C 0,0 C 67 % 65 % 60 % 0 % 0 % 0,0 mm 0,0 m/s (0 Bft) N-NE 22 0 min 12,9 C 19,2 C 0,0 m/s (0 Bft)
2021-09-26 11:00 21,4 C 19,0 C 19,5 C 51,6 C 0,0 C 0,0 C 20,8 C 20,8 C 0,0 C 68 % 65 % 60 % 0 % 0 % 0,0 mm 0,0 m/s (0 Bft) N-NE 22 0 min 13,0 C 19,0 C 0,0 m/s (0 Bft)
2021-09-26 10:55 21,4 C 18,8 C 18,9 C 51,7 C 0,0 C 0,0 C 20,6 C 20,6 C 0,0 C 68 % 65 % 60 % 0 % 0 % 0,0 mm 0,0 m/s (0 Bft) NE 45 0 min 12,8 C 18,8 C 0,0 m/s (0 Bft)
2021-09-26 10:50 21,4 C 18,7 C 18,7 C 52,1 C 0,0 C 0,0 C 20,5 C 20,5 C 0,0 C 69 % 65 % 61 % 0 % 0 % 0,0 mm 0,0 m/s (0 Bft) E-NE 67 0 min 12,9 C 18,7 C 0,0 m/s (0 Bft)
2021-09-26 10:45 21,4 C 18,3 C 18,2 C 52,0 C 0,0 C 0,0 C 20,1 C 20,1 C 0,0 C 70 % 65 % 61 % 0 % 0 % 0,0 mm 0,0 m/s (0 Bft) E 90 0 min 12,7 C 18,3 C 0,0 m/s (0 Bft)
2021-09-26 10:40 21,2 C 18,3 C 17,9 C 51,7 C 0,0 C 0,0 C 20,1 C 20,1 C 0,0 C 71 % 65 % 60 % 0 % 0 % 0,0 mm 0,0 m/s (0 Bft) E-NE 67 0 min 12,9 C 18,3 C 0,0 m/s (0 Bft)
2021-09-26 10:35 21,2 C 17,9 C 17,4 C 51,5 C 0,0 C 0,0 C 20,0 C 20,0 C 0,0 C 73 % 65 % 60 % 0 % 0 % 0,0 mm 0,0 m/s (0 Bft) E-NE 67 0 min 13,0 C 17,9 C 0,0 m/s (0 Bft)
2021-09-26 10:30 21,3 C 17,7 C 17,1 C 51,2 C 0,0 C 0,0 C 19,9 C 19,9 C 0,0 C 73 % 64 % 59 % 0 % 0 % 0,0 mm 0,0 m/s (0 Bft) N-NE 22 0 min 12,8 C 17,7 C 0,0 m/s (0 Bft)
2021-09-26 10:25 21,3 C 17,4 C 16,7 C 51,1 C 0,0 C 0,0 C 19,7 C 19,7 C 0,0 C 75 % 64 % 59 % 0 % 0 % 0,0 mm 0,0 m/s (0 Bft) NE 45 0 min 12,9 C 17,4 C 0,0 m/s (0 Bft)
2021-09-26 10:20 21,2 C 17,2 C 16,4 C 51,0 C 0,0 C 0,0 C 19,9 C 19,9 C 0,0 C 76 % 64 % 59 % 0 % 0 % 0,0 mm 0,0 m/s (0 Bft) NE 45 0 min 12,9 C 17,2 C 0,0 m/s (0 Bft)
2021-09-26 10:15 21,2 C 16,8 C 16,1 C 50,8 C 0,0 C 0,0 C 19,9 C 19,9 C 0,0 C 79 % 63 % 59 % 0 % 0 % 0,0 mm 0,0 m/s (0 Bft) NE 45 0 min 13,1 C 16,8 C 0,0 m/s (0 Bft)
2021-09-26 10:10 21,2 C 16,6 C 15,7 C 51,5 C 0,0 C 0,0 C 20,1 C 20,1 C 0,0 C 81 % 63 % 60 % 0 % 0 % 0,0 mm 0,0 m/s (0 Bft) NE 45 0 min 13,3 C 16,6 C 0,0 m/s (0 Bft)
2021-09-26 10:05 21,2 C 15,9 C 15,5 C 50,6 C 0,0 C 0,0 C 18,2 C 18,2 C 0,0 C 83 % 63 % 58 % 0 % 0 % 0,0 mm 0,0 m/s (0 Bft) N-NE 22 0 min 13,0 C 15,9 C 0,0 m/s (0 Bft)
2021-09-26 10:00 21,2 C 15,2 C 15,3 C 50,6 C 0,0 C 0,0 C 16,8 C 16,8 C 0,0 C 83 % 62 % 58 % 0 % 0 % 0,0 mm 0,0 m/s (0 Bft) N-NW 337 0 min 12,3 C 15,2 C 0,0 m/s (0 Bft)
2021-09-26 09:55 21,2 C 14,4 C 15,3 C 50,7 C 0,0 C 0,0 C 14,9 C 14,9 C 0,0 C 84 % 62 % 58 % 0 % 0 % 0,0 mm 0,0 m/s (0 Bft) NE 45 0 min 11,7 C 14,4 C 0,0 m/s (0 Bft)
2021-09-26 09:50 21,2 C 14,3 C 15,3 C 50,6 C 0,0 C 0,0 C 14,6 C 14,6 C 0,0 C 84 % 62 % 58 % 0 % 0 % 0,0 mm 0,0 m/s (0 Bft) E-NE 67 0 min 11,6 C 14,3 C 0,0 m/s (0 Bft)
2021-09-26 09:45 21,2 C 14,3 C 15,1 C 50,4 C 0,0 C 0,0 C 14,2 C 13,9 C 0,0 C 85 % 62 % 58 % 0 % 0 % 0,0 mm 0,0 m/s (0 Bft) NE 45 0 min 11,8 C 14,3 C 0,0 m/s (0 Bft)
2021-09-26 09:40 21,2 C 13,8 C 14,9 C 50,7 C 0,0 C 0,0 C 13,6 C 13,3 C 0,0 C 85 % 62 % 58 % 0 % 0 % 0,0 mm 0,0 m/s (0 Bft) E-NE 67 0 min 11,3 C 13,8 C 0,0 m/s (0 Bft)
2021-09-26 09:35 21,2 C 13,7 C 14,9 C 51,0 C 0,0 C 0,0 C 13,5 C 13,2 C 0,0 C 85 % 62 % 59 % 0 % 0 % 0,0 mm 0,0 m/s (0 Bft) N 360 0 min 11,2 C 13,7 C 0,0 m/s (0 Bft)
2021-09-26 09:30 21,1 C 13,7 C 14,7 C 50,8 C 0,0 C 0,0 C 13,6 C 13,3 C 0,0 C 85 % 62 % 59 % 0 % 0 % 0,0 mm 0,0 m/s (0 Bft) N-NW 337 0 min 11,2 C 13,7 C 0,0 m/s (0 Bft)
2021-09-26 09:25 21,1 C 13,5 C 14,4 C 51,1 C 0,0 C 0,0 C 13,6 C 13,6 C 0,0 C 86 % 62 % 59 % 0 % 0 % 0,0 mm 0,0 m/s (0 Bft) N-NE 22 0 min 11,2 C 13,5 C 0,0 m/s (0 Bft)
2021-09-26 09:20 21,1 C 13,7 C 14,3 C 51,0 C 0,0 C 0,0 C 14,2 C 14,2 C 0,0 C 86 % 62 % 59 % 0 % 0 % 0,0 mm 0,0 m/s (0 Bft) N-NE 22 0 min 11,4 C 13,7 C 0,0 m/s (0 Bft)
2021-09-26 09:15 21,1 C 13,9 C 14,1 C 50,6 C 0,0 C 0,0 C 15,9 C 15,9 C 0,0 C 86 % 62 % 58 % 0 % 0 % 0,0 mm 0,0 m/s (0 Bft) N-NW 337 0 min 11,6 C 13,9 C 0,0 m/s (0 Bft)
2021-09-26 09:10 21,1 C 14,0 C 13,9 C 50,7 C 0,0 C 0,0 C 16,5 C 16,5 C 0,0 C 86 % 62 % 58 % 0 % 0 % 0,0 mm 0,0 m/s (0 Bft) N-NE 22 0 min 11,7 C 14,0 C 0,0 m/s (0 Bft)
2021-09-26 09:05 21,0 C 13,2 C 13,7 C 50,4 C 0,0 C 0,0 C 15,0 C 15,0 C 0,0 C 87 % 62 % 58 % 0 % 0 % 0,0 mm 0,0 m/s (0 Bft) N-NE 22 0 min 11,1 C 13,2 C 0,0 m/s (0 Bft)
2021-09-26 09:00 21,0 C 12,8 C 13,6 C 50,9 C 0,0 C 0,0 C 14,2 C 14,2 C 0,0 C 87 % 62 % 59 % 0 % 0 % 0,0 mm 0,0 m/s (0 Bft) N-NE 22 0 min 10,7 C 12,8 C 0,0 m/s (0 Bft)
2021-09-26 08:55 21,0 C 12,5 C 13,3 C 50,3 C 0,0 C 0,0 C 14,4 C 14,4 C 0,0 C 87 % 62 % 58 % 0 % 0 % 0,0 mm 0,0 m/s (0 Bft) N-NE 22 0 min 10,4 C 12,5 C 0,0 m/s (0 Bft)
2021-09-26 08:50 21,0 C 12,3 C 13,2 C 50,0 C 0,0 C 0,0 C 14,8 C 14,8 C 0,0 C 87 % 61 % 57 % 0 % 0 % 0,0 mm 0,0 m/s (0 Bft) N-NE 22 0 min 10,2 C 12,3 C 0,0 m/s (0 Bft)
2021-09-26 08:45 20,9 C 11,9 C 13,1 C 50,1 C 0,0 C 0,0 C 13,9 C 13,9 C 0,0 C 88 % 61 % 57 % 0 % 0 % 0,0 mm 0,0 m/s (0 Bft) N 360 0 min 10,0 C 11,9 C 0,0 m/s (0 Bft)
2021-09-26 08:40 20,9 C 11,4 C 13,1 C 50,1 C 0,0 C 0,0 C 12,8 C 12,8 C 0,0 C 88 % 61 % 57 % 0 % 0 % 0,0 mm 0,0 m/s (0 Bft) N-NE 22 0 min 9,5 C 11,4 C 0,0 m/s (0 Bft)
2021-09-26 08:35 20,9 C 10,8 C 12,9 C 50,1 C 0,0 C 0,0 C 11,3 C 11,3 C 0,0 C 88 % 61 % 57 % 0 % 0 % 0,0 mm 0,0 m/s (0 Bft) N-NW 337 0 min 8,9 C 10,8 C 0,0 m/s (0 Bft)
2021-09-26 08:30 20,9 C 10,7 C 12,9 C 50,1 C 0,0 C 0,0 C 10,7 C 10,7 C 0,0 C 88 % 61 % 57 % 0 % 0 % 0,0 mm 0,0 m/s (0 Bft) N-NW 337 5 min 8,8 C 10,7 C 0,0 m/s (0 Bft)
2021-09-26 08:25 20,9 C 10,4 C 12,7 C 47,5 C 0,0 C 0,0 C 10,5 C 10,5 C 0,0 C 88 % 61 % 53 % 0 % 0 % 0,0 mm 0,0 m/s (0 Bft) N-NE 22 5 min 8,5 C 10,4 C 0,0 m/s (0 Bft)
2021-09-26 08:20 20,8 C 10,3 C 12,7 C 48,6 C 0,0 C 0,0 C 10,3 C 10,3 C 0,0 C 88 % 61 % 55 % 0 % 0 % 0,0 mm 0,0 m/s (0 Bft) N-NE 22 5 min 8,4 C 10,3 C 0,0 m/s (0 Bft)
2021-09-26 08:15 20,8 C 10,0 C 12,7 C 47,9 C 0,0 C 0,0 C 9,8 C 9,5 C 0,0 C 88 % 61 % 54 % 0 % 0 % 0,0 mm 0,0 m/s (0 Bft) N-NE 22 5 min 8,1 C 10,0 C 0,0 m/s (0 Bft)
2021-09-26 08:10 20,8 C 9,9 C 12,6 C 44,4 C 0,0 C 0,0 C 9,7 C 9,4 C 0,0 C 88 % 60 % 48 % 0 % 0 % 0,0 mm 0,0 m/s (0 Bft) N-NW 337 5 min 8,0 C 9,9 C 0,0 m/s (0 Bft)
2021-09-26 08:05 20,8 C 9,7 C 12,5 C 43,4 C 0,0 C 0,0 C 9,5 C 9,2 C 0,0 C 88 % 60 % 46 % 0 % 0 % 0,0 mm 0,0 m/s (0 Bft) N-NE 22 5 min 7,8 C 9,7 C 0,0 m/s (0 Bft)
2021-09-26 08:00 20,8 C 9,6 C 12,4 C 41,8 C 0,0 C 0,0 C 9,4 C 9,1 C 0,0 C 88 % 60 % 44 % 0 % 0 % 0,0 mm 0,0 m/s (0 Bft) NE 45 5 min 7,7 C 9,6 C 0,0 m/s (0 Bft)
2021-09-26 07:55 20,8 C 9,5 C 12,5 C 42,9 C 0,0 C 0,0 C 9,3 C 8,9 C 0,0 C 88 % 60 % 46 % 0 % 0 % 0,0 mm 0,0 m/s (0 Bft) N-NE 22 5 min 7,6 C 9,5 C 0,0 m/s (0 Bft)
2021-09-26 07:50 20,8 C 9,5 C 12,4 C 42,1 C 0,0 C 0,0 C 9,3 C 8,8 C 0,0 C 88 % 60 % 44 % 0 % 0 % 0,0 mm 0,0 m/s (0 Bft) N-NW 337 5 min 7,6 C 9,5 C 0,0 m/s (0 Bft)
2021-09-26 07:45 20,8 C 9,3 C 12,3 C 37,0 C 0,0 C 0,0 C 9,0 C 8,5 C 0,0 C 87 % 60 % 36 % 0 % 0 % 0,0 mm 0,0 m/s (0 Bft) N-NE 22 5 min 7,2 C 9,3 C 0,0 m/s (0 Bft)
2021-09-26 07:40 20,8 C 9,3 C 12,3 C 34,2 C 0,0 C 0,0 C 9,0 C 8,4 C 0,0 C 87 % 60 % 31 % 0 % 0 % 0,0 mm 0,0 m/s (0 Bft) N-NW 337 5 min 7,2 C 9,3 C 0,9 m/s (1 Bft)
2021-09-26 07:35 20,8 C 9,1 C 12,3 C 29,3 C 0,0 C 0,0 C 8,8 C 8,3 C 0,0 C 87 % 60 % 23 % 0 % 0 % 0,0 mm 0,0 m/s (0 Bft) N 360 5 min 7,1 C 9,1 C 0,0 m/s (0 Bft)
2021-09-26 07:30 20,8 C 9,1 C 12,2 C 25,2 C 0,0 C 0,0 C 8,8 C 8,3 C 0,0 C 87 % 60 % 17 % 0 % 0 % 0,0 mm 0,0 m/s (0 Bft) N-NE 22 5 min 7,1 C 9,1 C 0,0 m/s (0 Bft)
2021-09-26 07:25 20,8 C 9,0 C 12,3 C 18,1 C 0,0 C 0,0 C 8,8 C 8,3 C 0,0 C 87 % 60 % 5 % 0 % 0 % 0,0 mm 0,0 m/s (0 Bft) N 360 0 min 7,0 C 9,0 C 0,0 m/s (0 Bft)
2021-09-26 07:20 20,8 C 9,0 C 12,3 C 13,8 C 0,0 C 0,0 C 8,8 C 8,3 C 0,0 C 87 % 60 % 0 % 0 % 0 % 0,0 mm 0,0 m/s (0 Bft) N-NE 22 0 min 7,0 C 9,0 C 0,0 m/s (0 Bft)
2021-09-26 07:15 20,8 C 9,0 C 12,3 C 8,9 C 0,0 C 0,0 C 8,8 C 8,4 C 0,0 C 87 % 60 % 0 % 0 % 0 % 0,0 mm 0,0 m/s (0 Bft) N-NW 337 0 min 7,0 C 9,0 C 0,0 m/s (0 Bft)
2021-09-26 07:10 20,9 C 9,1 C 12,3 C 7,0 C 0,0 C 0,0 C 8,9 C 8,4 C 0,0 C 87 % 60 % 0 % 0 % 0 % 0,0 mm 0,0 m/s (0 Bft) N 360 0 min 7,1 C 9,1 C 0,0 m/s (0 Bft)
2021-09-26 07:05 20,9 C 8,9 C 12,3 C 5,1 C 0,0 C 0,0 C 8,7 C 8,4 C 0,0 C 87 % 60 % 0 % 0 % 0 % 0,0 mm 0,0 m/s (0 Bft) N-NW 337 0 min 6,9 C 8,9 C 0,0 m/s (0 Bft)
2021-09-26 07:00 20,9 C 8,9 C 12,3 C 4,1 C 0,0 C 0,0 C 8,7 C 8,4 C 0,0 C 87 % 60 % 0 % 0 % 0 % 0,0 mm 0,0 m/s (0 Bft) N-NE 22 0 min 6,9 C 8,9 C 0,0 m/s (0 Bft)
2021-09-26 06:55 20,9 C 8,8 C 12,3 C 1,9 C 0,0 C 0,0 C 8,6 C 8,3 C 0,0 C 87 % 60 % 0 % 0 % 0 % 0,0 mm 0,0 m/s (0 Bft) N-NW 337 0 min 6,8 C 8,8 C 0,0 m/s (0 Bft)
2021-09-26 06:50 20,9 C 8,7 C 12,3 C 0,7 C 0,0 C 0,0 C 8,6 C 8,3 C 0,0 C 87 % 59 % 0 % 0 % 0 % 0,0 mm 0,0 m/s (0 Bft) N-NE 22 0 min 6,7 C 8,7 C 0,0 m/s (0 Bft)
2021-09-26 06:45 21,0 C 8,7 C 12,3 C -0,2 C 0,0 C 0,0 C 8,5 C 8,1 C 0,0 C 87 % 59 % 0 % 0 % 0 % 0,0 mm 0,0 m/s (0 Bft) N-NW 337 0 min 6,7 C 8,7 C 0,0 m/s (0 Bft)
2021-09-26 06:40 20,9 C 8,7 C 12,2 C -0,5 C 0,0 C 0,0 C 8,5 C 8,1 C 0,0 C 87 % 59 % 0 % 0 % 0 % 0,0 mm 0,0 m/s (0 Bft) N 360 0 min 6,7 C 8,7 C 0,0 m/s (0 Bft)
2021-09-26 06:35 20,9 C 8,5 C 12,2 C -0,8 C 0,0 C 0,0 C 8,3 C 8,0 C 0,0 C 87 % 59 % 0 % 0 % 0 % 0,0 mm 0,0 m/s (0 Bft) SE 135 0 min 6,5 C 8,5 C 0,0 m/s (0 Bft)
2021-09-26 06:30 21,0 C 8,5 C 12,2 C -0,8 C 0,0 C 0,0 C 8,3 C 7,9 C 0,0 C 87 % 59 % 0 % 0 % 0 % 0,0 mm 0,0 m/s (0 Bft) N-NE 22 0 min 6,5 C 8,5 C 0,0 m/s (0 Bft)
2021-09-26 06:25 21,0 C 8,4 C 12,2 C -0,8 C 0,0 C 0,0 C 8,2 C 7,7 C 0,0 C 87 % 59 % 0 % 0 % 0 % 0,0 mm 0,0 m/s (0 Bft) N-NE 22 0 min 6,4 C 8,4 C 0,0 m/s (0 Bft)
2021-09-26 06:20 20,9 C 8,4 C 12,2 C -0,8 C 0,0 C 0,0 C 8,1 C 7,6 C 0,0 C 87 % 59 % 0 % 0 % 0 % 0,0 mm 0,0 m/s (0 Bft) N-NE 22 0 min 6,4 C 8,4 C 0,0 m/s (0 Bft)
2021-09-26 06:15 21,0 C 8,5 C 12,3 C -0,8 C 0,0 C 0,0 C 8,2 C 7,6 C 0,0 C 87 % 59 % 0 % 0 % 0 % 0,0 mm 0,0 m/s (0 Bft) N 360 0 min 6,5 C 8,5 C 0,0 m/s (0 Bft)
2021-09-26 06:10 20,9 C 8,4 C 12,3 C -0,9 C 0,0 C 0,0 C 8,1 C 7,6 C 0,0 C 86 % 59 % 0 % 0 % 0 % 0,0 mm 0,0 m/s (0 Bft) N-NE 22 0 min 6,2 C 8,4 C 0,0 m/s (0 Bft)
2021-09-26 06:05 20,9 C 8,4 C 12,3 C -0,9 C 0,0 C 0,0 C 8,1 C 7,6 C 0,0 C 86 % 59 % 0 % 0 % 0 % 0,0 mm 0,0 m/s (0 Bft) N-NE 22 0 min 6,2 C 8,4 C 0,0 m/s (0 Bft)
2021-09-26 06:00 20,9 C 8,4 C 12,3 C -0,8 C 0,0 C 0,0 C 8,2 C 7,7 C 0,0 C 86 % 59 % 0 % 0 % 0 % 0,0 mm 0,0 m/s (0 Bft) N-NE 22 0 min 6,2 C 8,4 C 0,0 m/s (0 Bft)
2021-09-26 05:55 20,9 C 8,3 C 12,3 C -0,8 C 0,0 C 0,0 C 8,1 C 7,8 C 0,0 C 86 % 59 % 0 % 0 % 0 % 0,0 mm 0,0 m/s (0 Bft) N-NE 22 0 min 6,1 C 8,3 C 0,0 m/s (0 Bft)
2021-09-26 05:50 20,9 C 8,3 C 12,3 C -0,9 C 0,0 C 0,0 C 8,1 C 7,8 C 0,0 C 86 % 59 % 0 % 0 % 0 % 0,0 mm 0,0 m/s (0 Bft) SE 135 0 min 6,1 C 8,3 C 0,0 m/s (0 Bft)
2021-09-26 05:45 20,8 C 8,3 C 12,3 C -0,9 C 0,0 C 0,0 C 8,2 C 7,9 C 0,0 C 86 % 59 % 0 % 0 % 0 % 0,0 mm 0,0 m/s (0 Bft) N-NE 22 0 min 6,1 C 8,3 C 0,0 m/s (0 Bft)
2021-09-26 05:40 20,8 C 8,3 C 12,4 C -0,8 C 0,0 C 0,0 C 8,2 C 8,0 C 0,0 C 86 % 59 % 0 % 0 % 0 % 0,0 mm 0,0 m/s (0 Bft) N-NE 22 0 min 6,1 C 8,3 C 0,0 m/s (0 Bft)
2021-09-26 05:35 20,8 C 8,2 C 12,4 C -0,9 C 0,0 C 0,0 C 8,1 C 8,0 C 0,0 C 86 % 59 % 0 % 0 % 0 % 0,0 mm 0,0 m/s (0 Bft) N-NE 22 0 min 6,0 C 8,2 C 0,0 m/s (0 Bft)
2021-09-26 05:30 20,8 C 8,1 C 12,5 C -0,9 C 0,0 C 0,0 C 8,0 C 7,9 C 0,0 C 86 % 59 % 0 % 0 % 0 % 0,0 mm 0,0 m/s (0 Bft) N-NE 22 0 min 5,9 C 8,1 C 0,0 m/s (0 Bft)
2021-09-26 05:25 20,8 C 8,0 C 12,5 C -0,8 C 0,0 C 0,0 C 7,9 C 7,8 C 0,0 C 85 % 59 % 0 % 0 % 0 % 0,0 mm 0,0 m/s (0 Bft) N-NE 22 0 min 5,6 C 8,0 C 0,0 m/s (0 Bft)
2021-09-26 05:20 20,8 C 8,1 C 12,4 C -0,9 C 0,0 C 0,0 C 7,9 C 7,6 C 0,0 C 85 % 59 % 0 % 0 % 0 % 0,0 mm 0,0 m/s (0 Bft) N-NE 22 0 min 5,7 C 8,1 C 0,0 m/s (0 Bft)
2021-09-26 05:15 20,8 C 8,1 C 12,5 C -0,8 C 0,0 C 0,0 C 7,9 C 7,6 C 0,0 C 85 % 59 % 0 % 0 % 0 % 0,0 mm 0,0 m/s (0 Bft) NE 45 0 min 5,7 C 8,1 C 0,0 m/s (0 Bft)
2021-09-26 05:10 20,8 C 8,0 C 12,5 C -0,9 C 0,0 C 0,0 C 7,9 C 7,6 C 0,0 C 85 % 59 % 0 % 0 % 0 % 0,0 mm 0,0 m/s (0 Bft) N-NE 22 0 min 5,6 C 8,0 C 0,0 m/s (0 Bft)
2021-09-26 05:05 20,8 C 8,1 C 12,6 C -0,9 C 0,0 C 0,0 C 7,9 C 7,5 C 0,0 C 85 % 59 % 0 % 0 % 0 % 0,0 mm 0,0 m/s (0 Bft) N-NE 22 0 min 5,7 C 8,1 C 0,0 m/s (0 Bft)
2021-09-26 05:00 20,8 C 8,1 C 12,7 C -0,9 C 0,0 C 0,0 C 7,9 C 7,4 C 0,0 C 85 % 59 % 0 % 0 % 0 % 0,0 mm 0,0 m/s (0 Bft) N-NE 22 0 min 5,7 C 8,1 C 0,0 m/s (0 Bft)
2021-09-26 04:55 20,9 C 8,0 C 12,7 C -0,9 C 0,0 C 0,0 C 7,8 C 7,4 C 0,0 C 85 % 59 % 0 % 0 % 0 % 0,0 mm 0,0 m/s (0 Bft) N-NE 22 0 min 5,6 C 8,0 C 0,0 m/s (0 Bft)
2021-09-26 04:50 20,9 C 8,0 C 12,6 C -0,9 C 0,0 C 0,0 C 7,8 C 7,4 C 0,0 C 85 % 59 % 0 % 0 % 0 % 0,0 mm 0,0 m/s (0 Bft) N-NE 22 0 min 5,6 C 8,0 C 0,0 m/s (0 Bft)
2021-09-26 04:45 20,9 C 8,1 C 12,7 C -0,9 C 0,0 C 0,0 C 7,9 C 7,4 C 0,0 C 85 % 59 % 0 % 0 % 0 % 0,0 mm 0,0 m/s (0 Bft) N 360 0 min 5,7 C 8,1 C 0,0 m/s (0 Bft)
2021-09-26 04:40 20,9 C 8,1 C 12,7 C -0,9 C 0,0 C 0,0 C 7,9 C 7,4 C 0,0 C 85 % 59 % 0 % 0 % 0 % 0,0 mm 0,0 m/s (0 Bft) N 360 0 min 5,7 C 8,1 C 0,0 m/s (0 Bft)
2021-09-26 04:35 21,0 C 8,1 C 12,8 C -0,9 C 0,0 C 0,0 C 7,9 C 7,4 C 0,0 C 85 % 58 % 0 % 0 % 0 % 0,0 mm 0,0 m/s (0 Bft) N-NE 22 0 min 5,7 C 8,1 C 0,0 m/s (0 Bft)
2021-09-26 04:30 21,0 C 8,1 C 12,9 C -0,9 C 0,0 C 0,0 C 7,9 C 7,4 C 0,0 C 85 % 58 % 0 % 0 % 0 % 0,0 mm 0,0 m/s (0 Bft) N-NE 22 0 min 5,7 C 8,1 C 0,0 m/s (0 Bft)
2021-09-26 04:25 21,0 C 8,1 C 12,8 C -0,9 C 0,0 C 0,0 C 7,9 C 7,6 C 0,0 C 85 % 58 % 0 % 0 % 0 % 0,0 mm 0,0 m/s (0 Bft) N-NE 22 0 min 5,7 C 8,1 C 0,0 m/s (0 Bft)
2021-09-26 04:20 21,0 C 8,3 C 12,8 C -0,9 C 0,0 C 0,0 C 8,1 C 7,6 C 0,0 C 85 % 58 % 0 % 0 % 0 % 0,0 mm 0,0 m/s (0 Bft) N-NE 22 0 min 5,9 C 8,3 C 0,0 m/s (0 Bft)
2021-09-26 04:15 21,0 C 8,3 C 12,9 C -0,9 C 0,0 C 0,0 C 8,1 C 7,7 C 0,0 C 85 % 58 % 0 % 0 % 0 % 0,0 mm 0,0 m/s (0 Bft) N-NE 22 0 min 5,9 C 8,3 C 0,0 m/s (0 Bft)
2021-09-26 04:10 21,0 C 8,3 C 12,9 C -0,9 C 0,0 C 0,0 C 8,1 C 7,6 C 0,0 C 85 % 58 % 0 % 0 % 0 % 0,0 mm 0,0 m/s (0 Bft) N-NE 22 0 min 5,9 C 8,3 C 0,0 m/s (0 Bft)
2021-09-26 04:05 21,0 C 8,2 C 13,1 C -0,8 C 0,0 C 0,0 C 8,0 C 7,6 C 0,0 C 84 % 58 % 0 % 0 % 0 % 0,0 mm 0,0 m/s (0 Bft) N-NE 22 0 min 5,7 C 8,2 C 0,0 m/s (0 Bft)
2021-09-26 04:00 21,0 C 8,3 C 13,1 C -0,9 C 0,0 C 0,0 C 8,1 C 7,6 C 0,0 C 84 % 58 % 0 % 0 % 0 % 0,0 mm 0,0 m/s (0 Bft) N-NE 22 0 min 5,8 C 8,3 C 0,0 m/s (0 Bft)
2021-09-26 03:55 21,0 C 8,3 C 13,1 C -0,9 C 0,0 C 0,0 C 8,1 C 7,6 C 0,0 C 84 % 58 % 0 % 0 % 0 % 0,0 mm 0,0 m/s (0 Bft) N-NE 22 0 min 5,8 C 8,3 C 0,0 m/s (0 Bft)
2021-09-26 03:50 21,0 C 8,4 C 13,1 C -0,9 C 0,0 C 0,0 C 8,1 C 7,6 C 0,0 C 84 % 58 % 0 % 0 % 0 % 0,0 mm 0,0 m/s (0 Bft) N-NE 22 0 min 5,9 C 8,4 C 0,0 m/s (0 Bft)
2021-09-26 03:45 21,0 C 8,4 C 13,1 C -0,8 C 0,0 C 0,0 C 8,1 C 7,6 C 0,0 C 84 % 58 % 0 % 0 % 0 % 0,0 mm 0,0 m/s (0 Bft) N-NE 22 0 min 5,9 C 8,4 C 0,0 m/s (0 Bft)
2021-09-26 03:40 21,0 C 8,5 C 13,2 C -0,9 C 0,0 C 0,0 C 8,2 C 7,7 C 0,0 C 84 % 58 % 0 % 0 % 0 % 0,0 mm 0,0 m/s (0 Bft) N-NE 22 0 min 6,0 C 8,5 C 0,0 m/s (0 Bft)
2021-09-26 03:35 21,0 C 8,4 C 13,3 C -0,8 C 0,0 C 0,0 C 8,2 C 7,7 C 0,0 C 84 % 58 % 0 % 0 % 0 % 0,0 mm 0,0 m/s (0 Bft) N-NE 22 0 min 5,9 C 8,4 C 0,0 m/s (0 Bft)
2021-09-26 03:30 21,0 C 8,4 C 13,2 C -0,8 C 0,0 C 0,0 C 8,1 C 7,6 C 0,0 C 84 % 58 % 0 % 0 % 0 % 0,0 mm 0,0 m/s (0 Bft) N 360 0 min 5,9 C 8,4 C 0,0 m/s (0 Bft)
2021-09-26 03:25 21,0 C 8,5 C 13,3 C -0,8 C 0,0 C 0,0 C 8,2 C 7,7 C 0,0 C 84 % 58 % 0 % 0 % 0 % 0,0 mm 0,0 m/s (0 Bft) N 360 0 min 6,0 C 8,5 C 0,0 m/s (0 Bft)
2021-09-26 03:20 21,0 C 8,5 C 13,3 C -0,9 C 0,0 C 0,0 C 8,3 C 7,8 C 0,0 C 84 % 58 % 0 % 0 % 0 % 0,0 mm 0,0 m/s (0 Bft) N-NW 337 0 min 6,0 C 8,5 C 0,0 m/s (0 Bft)
2021-09-26 03:15 20,9 C 8,7 C 13,5 C -0,9 C 0,0 C 0,0 C 8,5 C 8,1 C 0,0 C 84 % 58 % 0 % 0 % 0 % 0,0 mm 0,0 m/s (0 Bft) N-NW 337 0 min 6,2 C 8,7 C 0,0 m/s (0 Bft)
2021-09-26 03:10 20,9 C 8,7 C 13,5 C -0,9 C 0,0 C 0,0 C 8,6 C 8,3 C 0,0 C 84 % 58 % 0 % 0 % 0 % 0,0 mm 0,0 m/s (0 Bft) N-NE 22 0 min 6,2 C 8,7 C 0,0 m/s (0 Bft)
2021-09-26 03:05 20,9 C 8,6 C 13,5 C -0,9 C 0,0 C 0,0 C 8,6 C 8,6 C 0,0 C 84 % 58 % 0 % 0 % 0 % 0,0 mm 0,0 m/s (0 Bft) NE 45 0 min 6,1 C 8,6 C 0,0 m/s (0 Bft)
2021-09-26 03:00 20,9 C 8,7 C 13,5 C -0,9 C 0,0 C 0,0 C 8,7 C 8,6 C 0,0 C 84 % 58 % 0 % 0 % 0 % 0,0 mm 0,0 m/s (0 Bft) E-NE 67 0 min 6,2 C 8,7 C 0,0 m/s (0 Bft)
2021-09-26 02:55 20,9 C 8,7 C 13,6 C -0,9 C 0,0 C 0,0 C 8,6 C 8,5 C 0,0 C 84 % 58 % 0 % 0 % 0 % 0,0 mm 0,0 m/s (0 Bft) E-NE 67 0 min 6,2 C 8,7 C 0,0 m/s (0 Bft)
2021-09-26 02:50 20,9 C 8,7 C 13,6 C -0,9 C 0,0 C 0,0 C 8,7 C 8,6 C 0,0 C 84 % 58 % 0 % 0 % 0 % 0,0 mm 0,0 m/s (0 Bft) E 90 0 min 6,2 C 8,7 C 0,0 m/s (0 Bft)
2021-09-26 02:45 20,9 C 8,8 C 13,6 C -0,9 C 0,0 C 0,0 C 8,7 C 8,5 C 0,0 C 84 % 58 % 0 % 0 % 0 % 0,0 mm 0,0 m/s (0 Bft) E-NE 67 0 min 6,2 C 8,8 C 0,0 m/s (0 Bft)
2021-09-26 02:40 20,9 C 8,8 C 13,7 C -0,9 C 0,0 C 0,0 C 8,7 C 8,5 C 0,0 C 84 % 58 % 0 % 0 % 0 % 0,0 mm 0,0 m/s (0 Bft) E-NE 67 0 min 6,2 C 8,8 C 0,0 m/s (0 Bft)
2021-09-26 02:35 21,0 C 8,9 C 13,7 C -0,8 C 0,0 C 0,0 C 8,7 C 8,3 C 0,0 C 84 % 58 % 0 % 0 % 0 % 0,0 mm 0,0 m/s (0 Bft) E-NE 67 0 min 6,3 C 8,9 C 0,0 m/s (0 Bft)
2021-09-26 02:30 21,0 C 8,8 C 13,7 C -0,8 C 0,0 C 0,0 C 8,6 C 8,1 C 0,0 C 84 % 58 % 0 % 0 % 0 % 0,0 mm 0,0 m/s (0 Bft) E-NE 67 0 min 6,2 C 8,8 C 0,0 m/s (0 Bft)
2021-09-26 02:25 21,0 C 8,9 C 13,9 C -0,9 C 0,0 C 0,0 C 8,6 C 7,9 C 0,0 C 84 % 58 % 0 % 0 % 0 % 0,0 mm 0,0 m/s (0 Bft) E 90 0 min 6,3 C 8,9 C 0,0 m/s (0 Bft)
2021-09-26 02:20 21,0 C 8,9 C 13,8 C -0,9 C 0,0 C 0,0 C 8,6 C 7,9 C 0,0 C 84 % 58 % 0 % 0 % 0 % 0,0 mm 0,0 m/s (0 Bft) E-NE 67 0 min 6,3 C 8,9 C 0,0 m/s (0 Bft)
2021-09-26 02:15 21,0 C 9,0 C 13,9 C -0,8 C 0,0 C 0,0 C 8,6 C 7,8 C 0,0 C 84 % 58 % 0 % 0 % 0 % 0,0 mm 0,0 m/s (0 Bft) E-NE 67 0 min 6,4 C 9,0 C 0,0 m/s (0 Bft)
2021-09-26 02:10 21,0 C 9,1 C 14,0 C -0,8 C 0,0 C 0,0 C 8,7 C 7,8 C 0,0 C 84 % 58 % 0 % 0 % 0 % 0,0 mm 0,0 m/s (0 Bft) NE 45 0 min 6,5 C 9,1 C 0,0 m/s (0 Bft)
2021-09-26 02:05 21,0 C 9,1 C 14,1 C -0,9 C 0,0 C 0,0 C 8,7 C 7,9 C 0,0 C 84 % 57 % 0 % 0 % 0 % 0,0 mm 0,0 m/s (0 Bft) NE 45 0 min 6,5 C 9,1 C 0,0 m/s (0 Bft)
2021-09-26 02:00 21,0 C 9,1 C 14,0 C -0,9 C 0,0 C 0,0 C 8,7 C 8,0 C 0,0 C 84 % 58 % 0 % 0 % 0 % 0,0 mm 0,0 m/s (0 Bft) NE 45 0 min 6,5 C 9,1 C 0,0 m/s (0 Bft)
2021-09-26 01:55 21,1 C 9,3 C 14,1 C -0,8 C 0,0 C 0,0 C 8,9 C 8,1 C 0,0 C 84 % 57 % 0 % 0 % 0 % 0,0 mm 0,0 m/s (0 Bft) NE 45 0 min 6,7 C 9,3 C 0,0 m/s (0 Bft)
2021-09-26 01:50 21,1 C 9,2 C 14,1 C -0,8 C 0,0 C 0,0 C 8,9 C 8,3 C 0,0 C 84 % 57 % 0 % 0 % 0 % 0,0 mm 0,0 m/s (0 Bft) NE 45 0 min 6,6 C 9,2 C 0,0 m/s (0 Bft)
2021-09-26 01:45 21,1 C 9,3 C 14,3 C -0,8 C 0,0 C 0,0 C 9,0 C 8,5 C 0,0 C 84 % 57 % 0 % 0 % 0 % 0,0 mm 0,0 m/s (0 Bft) E-NE 67 0 min 6,7 C 9,3 C 0,0 m/s (0 Bft)
2021-09-26 01:40 21,1 C 9,3 C 14,2 C -0,8 C 0,0 C 0,0 C 9,0 C 8,5 C 0,0 C 84 % 57 % 0 % 0 % 0 % 0,0 mm 0,0 m/s (0 Bft) E-NE 67 0 min 6,7 C 9,3 C 0,0 m/s (0 Bft)
2021-09-26 01:35 21,1 C 9,4 C 14,3 C -0,9 C 0,0 C 0,0 C 9,1 C 8,4 C 0,0 C 84 % 57 % 0 % 0 % 0 % 0,0 mm 0,0 m/s (0 Bft) E-NE 67 0 min 6,8 C 9,4 C 0,0 m/s (0 Bft)
2021-09-26 01:30 21,1 C 9,5 C 14,3 C -0,8 C 0,0 C 0,0 C 9,1 C 8,4 C 0,0 C 84 % 57 % 0 % 0 % 0 % 0,0 mm 0,0 m/s (0 Bft) E-NE 67 0 min 6,9 C 9,5 C 0,0 m/s (0 Bft)
2021-09-26 01:25 21,1 C 9,5 C 14,4 C -0,8 C 0,0 C 0,0 C 9,1 C 8,3 C 0,0 C 84 % 57 % 0 % 0 % 0 % 0,0 mm 0,0 m/s (0 Bft) E-NE 67 0 min 6,9 C 9,5 C 0,0 m/s (0 Bft)
2021-09-26 01:20 21,2 C 9,5 C 14,4 C -0,8 C 0,0 C 0,0 C 9,1 C 8,3 C 0,0 C 84 % 57 % 0 % 0 % 0 % 0,0 mm 0,0 m/s (0 Bft) E 90 0 min 6,9 C 9,5 C 0,0 m/s (0 Bft)
2021-09-26 01:15 21,1 C 9,6 C 14,5 C -0,8 C 0,0 C 0,0 C 9,2 C 8,3 C 0,0 C 84 % 58 % 0 % 0 % 0 % 0,0 mm 0,0 m/s (0 Bft) E-NE 67 0 min 7,0 C 9,6 C 0,0 m/s (0 Bft)
2021-09-26 01:10 21,2 C 9,6 C 14,5 C -0,9 C 0,0 C 0,0 C 9,2 C 8,3 C 0,0 C 84 % 58 % 0 % 0 % 0 % 0,0 mm 0,0 m/s (0 Bft) E 90 0 min 7,0 C 9,6 C 0,0 m/s (0 Bft)
2021-09-26 01:05 21,1 C 9,7 C 14,7 C -0,8 C 0,0 C 0,0 C 9,2 C 8,1 C 0,0 C 83 % 58 % 0 % 0 % 0 % 0,0 mm 0,0 m/s (0 Bft) E-NE 67 0 min 7,0 C 9,7 C 0,0 m/s (0 Bft)
2021-09-26 01:00 21,1 C 9,7 C 14,6 C -0,9 C 0,0 C 0,0 C 9,2 C 8,1 C 0,0 C 83 % 57 % 0 % 0 % 0 % 0,0 mm 0,0 m/s (0 Bft) E-NE 67 0 min 7,0 C 9,7 C 0,0 m/s (0 Bft)
2021-09-26 00:55 21,1 C 9,7 C 14,7 C -0,9 C 0,0 C 0,0 C 9,2 C 8,1 C 0,0 C 84 % 57 % 0 % 0 % 0 % 0,0 mm 0,0 m/s (0 Bft) E-NE 67 0 min 7,1 C 9,7 C 0,0 m/s (0 Bft)
2021-09-26 00:50 21,1 C 9,7 C 14,8 C -0,8 C 0,0 C 0,0 C 9,2 C 8,2 C 0,0 C 84 % 57 % 0 % 0 % 0 % 0,0 mm 0,0 m/s (0 Bft) E-NE 67 0 min 7,1 C 9,7 C 0,0 m/s (0 Bft)
2021-09-26 00:45 21,0 C 9,8 C 14,9 C -0,8 C 0,0 C 0,0 C 9,3 C 8,3 C 0,0 C 84 % 57 % 0 % 0 % 0 % 0,0 mm 0,0 m/s (0 Bft) E-NE 67 0 min 7,2 C 9,8 C 0,0 m/s (0 Bft)
2021-09-26 00:40 21,0 C 9,9 C 14,8 C -0,9 C 0,0 C 0,0 C 9,4 C 8,3 C 0,0 C 84 % 57 % 0 % 0 % 0 % 0,0 mm 0,0 m/s (0 Bft) E-NE 67 0 min 7,3 C 9,9 C 0,0 m/s (0 Bft)
2021-09-26 00:35 21,0 C 10,0 C 14,9 C -0,8 C 0,0 C 0,0 C 9,4 C 8,3 C 0,0 C 84 % 57 % 0 % 0 % 0 % 0,0 mm 0,0 m/s (0 Bft) E-SE 112 0 min 7,4 C 10,0 C 0,0 m/s (0 Bft)
2021-09-26 00:30 21,0 C 10,0 C 15,0 C -0,8 C 0,0 C 0,0 C 9,4 C 8,3 C 0,0 C 84 % 57 % 0 % 0 % 0 % 0,0 mm 0,0 m/s (0 Bft) E 90 0 min 7,4 C 10,0 C 0,0 m/s (0 Bft)
2021-09-26 00:25 21,0 C 10,1 C 15,0 C -0,8 C 0,0 C 0,0 C 9,5 C 8,4 C 0,0 C 84 % 57 % 0 % 0 % 0 % 0,0 mm 0,0 m/s (0 Bft) E-NE 67 0 min 7,5 C 10,1 C 0,0 m/s (0 Bft)
2021-09-26 00:20 20,9 C 10,3 C 15,1 C -0,8 C 0,0 C 0,0 C 9,7 C 8,5 C 0,0 C 84 % 57 % 0 % 0 % 0 % 0,0 mm 0,0 m/s (0 Bft) E-NE 67 0 min 7,7 C 10,3 C 0,0 m/s (0 Bft)
2021-09-26 00:15 21,0 C 10,3 C 15,2 C -0,8 C 0,0 C 0,0 C 9,7 C 8,6 C 0,0 C 84 % 57 % 0 % 0 % 0 % 0,0 mm 0,0 m/s (0 Bft) E-SE 112 0 min 7,7 C 10,3 C 0,0 m/s (0 Bft)
2021-09-26 00:10 21,0 C 10,3 C 15,3 C -0,8 C 0,0 C 0,0 C 9,7 C 8,6 C 0,0 C 84 % 57 % 0 % 0 % 0 % 0,0 mm 0,0 m/s (0 Bft) E-NE 67 0 min 7,7 C 10,3 C 0,0 m/s (0 Bft)
2021-09-26 00:05 21,0 C 10,3 C 15,3 C -0,8 C 0,0 C 0,0 C 9,7 C 8,6 C 0,0 C 83 % 57 % 0 % 0 % 0 % 0,0 mm 0,0 m/s (0 Bft) N-NE 22 0 min 7,5 C 10,3 C 0,0 m/s (0 Bft)
2021-09-26 00:00 21,0 C 10,3 C 15,3 C -0,9 C 0,0 C 0,0 C 9,7 C 8,6 C 0,0 C 83 % 57 % 0 % 0 % 0 % 0,0 mm 0,0 m/s (0 Bft) E-NE 67 0 min 7,5 C 10,3 C 0,0 m/s (0 Bft)
2021-09-25 23:55 21,0 C 10,3 C 15,3 C -0,9 C 0,0 C 0,0 C 9,7 C 8,6 C 0,0 C 82 % 57 % 0 % 0 % 0 % 0,0 mm 0,0 m/s (0 Bft) E-SE 112 0 min 7,4 C 10,3 C 0,0 m/s (0 Bft)
2021-09-25 23:50 21,0 C 10,3 C 15,3 C -0,8 C 0,0 C 0,0 C 9,7 C 8,4 C 0,0 C 82 % 57 % 0 % 0 % 0 % 0,0 mm 0,0 m/s (0 Bft) E 90 0 min 7,4 C 10,3 C 0,0 m/s (0 Bft)
2021-09-25 23:45 21,1 C 10,4 C 15,3 C -0,8 C 0,0 C 0,0 C 9,8 C 8,6 C 0,0 C 83 % 57 % 0 % 0 % 0 % 0,0 mm 0,0 m/s (0 Bft) E-NE 67 0 min 7,6 C 10,4 C 0,0 m/s (0 Bft)
2021-09-25 23:40 21,1 C 10,4 C 15,5 C -0,9 C 0,0 C 0,0 C 9,8 C 8,7 C 0,0 C 83 % 57 % 0 % 0 % 0 % 0,0 mm 0,0 m/s (0 Bft) E-NE 67 0 min 7,6 C 10,4 C 0,0 m/s (0 Bft)
2021-09-25 23:35 21,1 C 10,5 C 15,6 C -0,9 C 0,0 C 0,0 C 9,9 C 8,6 C 0,0 C 82 % 57 % 0 % 0 % 0 % 0,0 mm 0,0 m/s (0 Bft) E 90 0 min 7,6 C 10,5 C 0,0 m/s (0 Bft)
2021-09-25 23:30 21,1 C 10,5 C 15,6 C -0,8 C 0,0 C 0,0 C 9,9 C 8,6 C 0,0 C 82 % 57 % 0 % 0 % 0 % 0,0 mm 0,0 m/s (0 Bft) E-NE 67 0 min 7,6 C 10,5 C 0,0 m/s (0 Bft)
2021-09-25 23:25 21,1 C 10,7 C 15,7 C -0,8 C 0,0 C 0,0 C 10,1 C 8,8 C 0,0 C 82 % 57 % 0 % 0 % 0 % 0,0 mm 0,0 m/s (0 Bft) E-NE 67 0 min 7,8 C 10,7 C 0,0 m/s (0 Bft)
2021-09-25 23:20 21,2 C 10,6 C 15,7 C -0,8 C 0,0 C 0,0 C 10,0 C 8,9 C 0,0 C 82 % 57 % 0 % 0 % 0 % 0,0 mm 0,0 m/s (0 Bft) E-NE 67 0 min 7,7 C 10,6 C 0,0 m/s (0 Bft)
2021-09-25 23:15 21,2 C 10,7 C 15,9 C -0,8 C 0,0 C 0,0 C 10,1 C 8,9 C 0,0 C 82 % 57 % 0 % 0 % 0 % 0,0 mm 0,0 m/s (0 Bft) NW 315 0 min 7,8 C 10,7 C 0,0 m/s (0 Bft)
2021-09-25 23:10 21,2 C 10,8 C 15,8 C -0,8 C 0,0 C 0,0 C 10,2 C 9,0 C 0,0 C 82 % 57 % 0 % 0 % 0 % 0,0 mm 0,0 m/s (0 Bft) NW 315 0 min 7,9 C 10,8 C 0,0 m/s (0 Bft)
2021-09-25 23:05 21,2 C 10,9 C 15,9 C -0,8 C 0,0 C 0,0 C 10,3 C 9,2 C 0,0 C 82 % 57 % 0 % 0 % 0 % 0,0 mm 0,0 m/s (0 Bft) NW 315 0 min 7,9 C 10,9 C 0,0 m/s (0 Bft)
2021-09-25 23:00 21,2 C 11,0 C 16,0 C -0,8 C 0,0 C 0,0 C 10,4 C 9,3 C 0,0 C 82 % 56 % 0 % 0 % 0 % 0,0 mm 0,0 m/s (0 Bft) NW 315 0 min 8,0 C 11,0 C 0,0 m/s (0 Bft)
2021-09-25 22:55 21,2 C 11,0 C 16,0 C -0,8 C 0,0 C 0,0 C 10,5 C 9,5 C 0,0 C 82 % 56 % 0 % 0 % 0 % 0,0 mm 0,0 m/s (0 Bft) NW 315 0 min 8,0 C 11,0 C 0,0 m/s (0 Bft)
2021-09-25 22:50 21,2 C 11,1 C 16,1 C -0,8 C 0,0 C 0,0 C 10,7 C 9,8 C 0,0 C 82 % 56 % 0 % 0 % 0 % 0,0 mm 0,0 m/s (0 Bft) NW 315 0 min 8,1 C 11,1 C 0,0 m/s (0 Bft)
2021-09-25 22:45 21,2 C 11,3 C 16,1 C -0,8 C 0,0 C 0,0 C 10,8 C 9,9 C 0,0 C 82 % 56 % 0 % 0 % 0 % 0,0 mm 0,0 m/s (0 Bft) NW 315 0 min 8,3 C 11,3 C 0,0 m/s (0 Bft)
2021-09-25 22:40 21,2 C 11,2 C 16,3 C -0,8 C 0,0 C 0,0 C 10,8 C 10,1 C 0,0 C 82 % 56 % 0 % 0 % 0 % 0,0 mm 0,0 m/s (0 Bft) N-NW 337 0 min 8,2 C 11,2 C 0,0 m/s (0 Bft)
2021-09-25 22:35 21,3 C 11,4 C 16,3 C -0,8 C 0,0 C 0,0 C 11,0 C 10,3 C 0,0 C 82 % 56 % 0 % 0 % 0 % 0,0 mm 0,2 m/s (0 Bft) N-NW 337 0 min 8,4 C 11,4 C 0,0 m/s (0 Bft)
2021-09-25 22:30 21,3 C 11,5 C 16,4 C -0,8 C 0,0 C 0,0 C 11,1 C 10,4 C 0,0 C 82 % 56 % 0 % 0 % 0 % 0,0 mm 0,3 m/s (0 Bft) NW 315 0 min 8,5 C 11,5 C 0,0 m/s (0 Bft)
2021-09-25 22:25 21,3 C 11,5 C 16,4 C -0,8 C 0,0 C 0,0 C 11,1 C 10,4 C 0,0 C 81 % 56 % 0 % 0 % 0 % 0,0 mm 0,1 m/s (0 Bft) W 270 0 min 8,4 C 11,5 C 0,9 m/s (1 Bft)
2021-09-25 22:20 21,3 C 11,5 C 16,5 C -0,8 C 0,0 C 0,0 C 11,1 C 10,4 C 0,0 C 81 % 56 % 0 % 0 % 0 % 0,0 mm 0,0 m/s (0 Bft) NW 315 0 min 8,4 C 11,5 C 0,5 m/s (1 Bft)
2021-09-25 22:15 21,3 C 11,6 C 16,5 C -0,8 C 0,0 C 0,0 C 11,3 C 10,6 C 0,0 C 81 % 56 % 0 % 0 % 0 % 0,0 mm 0,0 m/s (0 Bft) W 270 0 min 8,5 C 11,6 C 0,0 m/s (0 Bft)
2021-09-25 22:10 21,2 C 11,7 C 16,7 C -0,8 C 0,0 C 0,0 C 11,4 C 10,7 C 0,0 C 81 % 56 % 0 % 0 % 0 % 0,0 mm 0,2 m/s (0 Bft) W 270 0 min 8,5 C 11,7 C 0,0 m/s (0 Bft)
2021-09-25 22:05 21,2 C 11,6 C 16,7 C -0,8 C 0,0 C 0,0 C 11,4 C 10,9 C 0,0 C 81 % 56 % 0 % 0 % 0 % 0,0 mm 0,3 m/s (1 Bft) W 270 0 min 8,5 C 11,6 C 0,0 m/s (0 Bft)
2021-09-25 22:00 21,2 C 11,7 C 16,7 C -0,8 C 0,0 C 0,0 C 11,4 C 10,9 C 0,0 C 80 % 56 % 0 % 0 % 0 % 0,0 mm 0,2 m/s (0 Bft) W 270 0 min 8,4 C 11,7 C 0,6 m/s (1 Bft)
2021-09-25 21:55 21,2 C 11,7 C 16,8 C -0,8 C 0,0 C 0,0 C 11,4 C 10,9 C 0,0 C 80 % 56 % 0 % 0 % 0 % 0,0 mm 0,2 m/s (0 Bft) W-NW 292 0 min 8,4 C 11,7 C 0,5 m/s (1 Bft)
2021-09-25 21:50 21,4 C 11,8 C 16,9 C -0,8 C 0,0 C 0,0 C 11,5 C 10,9 C 0,0 C 80 % 56 % 0 % 0 % 0 % 0,0 mm 0,2 m/s (0 Bft) W 270 0 min 8,5 C 11,8 C 0,5 m/s (1 Bft)
2021-09-25 21:45 21,2 C 11,9 C 16,9 C -0,8 C 0,0 C 0,0 C 11,6 C 10,9 C 0,0 C 80 % 56 % 0 % 0 % 0 % 0,0 mm 0,1 m/s (0 Bft) W-SW 247 0 min 8,6 C 11,9 C 0,4 m/s (1 Bft)
2021-09-25 21:40 21,4 C 11,8 C 17,1 C -0,8 C 0,0 C 0,0 C 11,5 C 10,9 C 0,0 C 80 % 56 % 0 % 0 % 0 % 0,0 mm 0,2 m/s (0 Bft) W 270 0 min 8,5 C 11,8 C 0,0 m/s (0 Bft)
2021-09-25 21:35 21,4 C 12,0 C 17,2 C -0,8 C 0,0 C 0,0 C 11,6 C 10,9 C 0,0 C 80 % 56 % 0 % 0 % 0 % 0,0 mm 0,1 m/s (0 Bft) W-SW 247 0 min 8,7 C 12,0 C 1,0 m/s (1 Bft)
2021-09-25 21:30 21,4 C 12,0 C 17,2 C -0,8 C 0,0 C 0,0 C 11,6 C 10,9 C 0,0 C 79 % 56 % 0 % 0 % 0 % 0,0 mm 0,1 m/s (0 Bft) W 270 0 min 8,5 C 12,0 C 0,5 m/s (1 Bft)
2021-09-25 21:25 21,4 C 12,1 C 17,3 C -0,8 C 0,0 C 0,0 C 11,7 C 11,0 C 0,0 C 79 % 56 % 0 % 0 % 0 % 0,0 mm 0,1 m/s (0 Bft) W-SW 247 0 min 8,6 C 12,1 C 0,0 m/s (0 Bft)
2021-09-25 21:20 21,4 C 12,3 C 17,4 C -0,8 C 0,0 C 0,0 C 11,8 C 10,9 C 0,0 C 79 % 56 % 0 % 0 % 0 % 0,0 mm 0,2 m/s (0 Bft) W-SW 247 0 min 8,8 C 12,3 C 0,0 m/s (0 Bft)
2021-09-25 21:15 21,4 C 12,3 C 17,4 C -0,7 C 0,0 C 0,0 C 11,8 C 10,9 C 0,0 C 79 % 56 % 0 % 0 % 0 % 0,0 mm 0,1 m/s (0 Bft) W-SW 247 0 min 8,8 C 12,3 C 0,7 m/s (1 Bft)
2021-09-25 21:10 21,4 C 12,4 C 17,5 C -0,8 C 0,0 C 0,0 C 11,9 C 10,9 C 0,0 C 79 % 56 % 0 % 0 % 0 % 0,0 mm 0,0 m/s (0 Bft) W 270 0 min 8,9 C 12,4 C 0,0 m/s (0 Bft)
2021-09-25 21:05 21,4 C 12,5 C 17,6 C -0,7 C 0,0 C 0,0 C 12,0 C 10,9 C 0,0 C 79 % 56 % 0 % 0 % 0 % 0,0 mm 0,1 m/s (0 Bft) W-SW 247 0 min 9,0 C 12,5 C 0,0 m/s (0 Bft)
2021-09-25 21:00 21,5 C 12,6 C 17,7 C -0,7 C 0,0 C 0,0 C 12,1 C 11,1 C 0,0 C 79 % 56 % 0 % 0 % 0 % 0,0 mm 0,1 m/s (0 Bft) W-SW 247 0 min 9,1 C 12,6 C 0,0 m/s (0 Bft)
2021-09-25 20:55 21,5 C 12,7 C 17,9 C -0,7 C 0,0 C 0,0 C 12,2 C 11,1 C 0,0 C 78 % 56 % 0 % 0 % 0 % 0,0 mm 0,2 m/s (0 Bft) W-SW 247 0 min 9,0 C 12,7 C 0,5 m/s (1 Bft)
2021-09-25 20:50 21,5 C 12,8 C 17,9 C -0,7 C 0,0 C 0,0 C 12,2 C 11,1 C 0,0 C 78 % 56 % 0 % 0 % 0 % 0,0 mm 0,2 m/s (0 Bft) W 270 0 min 9,1 C 12,8 C 0,0 m/s (0 Bft)
2021-09-25 20:45 21,5 C 12,9 C 18,0 C -0,7 C 0,0 C 0,0 C 12,3 C 11,1 C 0,0 C 78 % 56 % 0 % 0 % 0 % 0,0 mm 0,1 m/s (0 Bft) W-SW 247 0 min 9,2 C 12,9 C 0,0 m/s (0 Bft)
2021-09-25 20:40 21,5 C 13,1 C 18,0 C -0,7 C 0,0 C 0,0 C 12,4 C 11,1 C 0,0 C 78 % 56 % 0 % 0 % 0 % 0,0 mm 0,1 m/s (0 Bft) W-SW 247 0 min 9,4 C 13,1 C 0,0 m/s (0 Bft)
2021-09-25 20:35 21,5 C 13,1 C 18,1 C -0,8 C 0,0 C 0,0 C 12,5 C 11,3 C 0,0 C 78 % 56 % 0 % 0 % 0 % 0,0 mm 0,0 m/s (0 Bft) W-SW 247 0 min 9,4 C 13,1 C 0,0 m/s (0 Bft)
2021-09-25 20:30 21,5 C 13,2 C 18,3 C -0,8 C 0,0 C 0,0 C 12,5 C 11,2 C 0,0 C 77 % 56 % 0 % 0 % 0 % 0,0 mm 0,0 m/s (0 Bft) W-SW 247 0 min 9,3 C 13,2 C 0,0 m/s (0 Bft)
2021-09-25 20:25 21,5 C 13,2 C 18,3 C -0,7 C 0,0 C 0,0 C 12,5 C 11,1 C 0,0 C 77 % 55 % 0 % 0 % 0 % 0,0 mm 0,0 m/s (0 Bft) W-SW 247 0 min 9,3 C 13,2 C 0,0 m/s (0 Bft)
2021-09-25 20:20 21,5 C 13,2 C 18,5 C -0,7 C 0,0 C 0,0 C 12,5 C 11,1 C 0,0 C 76 % 55 % 0 % 0 % 0 % 0,0 mm 0,0 m/s (0 Bft) W-SW 247 0 min 9,1 C 13,2 C 0,0 m/s (0 Bft)
2021-09-25 20:15 21,5 C 13,3 C 18,5 C -0,7 C 0,0 C 0,0 C 12,5 C 10,9 C 0,0 C 76 % 55 % 0 % 0 % 0 % 0,0 mm 0,0 m/s (0 Bft) W-SW 247 0 min 9,2 C 13,3 C 0,0 m/s (0 Bft)
2021-09-25 20:10 21,6 C 13,4 C 18,6 C -0,7 C 0,0 C 0,0 C 12,5 C 10,8 C 0,0 C 76 % 55 % 0 % 0 % 0 % 0,0 mm 0,0 m/s (0 Bft) W 270 0 min 9,3 C 13,4 C 0,0 m/s (0 Bft)
2021-09-25 20:05 21,6 C 13,6 C 18,8 C -0,6 C 0,0 C 0,0 C 12,7 C 10,9 C 0,0 C 76 % 55 % 0 % 0 % 0 % 0,0 mm 0,0 m/s (0 Bft) W-SW 247 0 min 9,4 C 13,6 C 0,0 m/s (0 Bft)
2021-09-25 20:00 21,6 C 13,8 C 18,8 C -0,7 C 0,0 C 0,0 C 12,9 C 11,0 C 0,0 C 75 % 55 % 0 % 0 % 0 % 0,0 mm 0,0 m/s (0 Bft) W-SW 247 0 min 9,4 C 13,8 C 0,0 m/s (0 Bft)
2021-09-25 19:55 21,6 C 14,0 C 19,1 C -0,7 C 0,0 C 0,0 C 13,1 C 11,2 C 0,0 C 75 % 55 % 0 % 0 % 0 % 0,0 mm 0,0 m/s (0 Bft) W-SW 247 0 min 9,6 C 14,0 C 0,0 m/s (0 Bft)
2021-09-25 19:50 21,6 C 14,1 C 19,1 C -0,7 C 0,0 C 0,0 C 13,2 C 11,4 C 0,0 C 74 % 55 % 0 % 0 % 0 % 0,0 mm 0,0 m/s (0 Bft) W-SW 247 0 min 9,5 C 14,1 C 0,0 m/s (0 Bft)
2021-09-25 19:45 21,6 C 14,4 C 19,2 C -0,6 C 0,0 C 0,0 C 13,5 C 11,6 C 0,0 C 75 % 55 % 0 % 0 % 0 % 0,0 mm 0,0 m/s (0 Bft) S-SW 202 0 min 10,0 C 14,4 C 0,0 m/s (0 Bft)
2021-09-25 19:40 21,6 C 14,5 C 19,3 C -0,6 C 0,0 C 0,0 C 13,6 C 11,8 C 0,0 C 74 % 55 % 0 % 0 % 0 % 0,0 mm 0,0 m/s (0 Bft) S-SW 202 0 min 9,9 C 14,5 C 0,0 m/s (0 Bft)
2021-09-25 19:35 21,6 C 14,8 C 19,4 C -0,6 C 0,0 C 0,0 C 13,9 C 12,2 C 0,0 C 74 % 55 % 0 % 0 % 0 % 0,0 mm 0,3 m/s (1 Bft) SW 225 0 min 10,2 C 14,8 C 0,0 m/s (0 Bft)
2021-09-25 19:30 21,6 C 15,0 C 19,5 C -0,5 C 0,0 C 0,0 C 14,1 C 12,4 C 0,0 C 73 % 55 % 0 % 0 % 0 % 0,0 mm 0,6 m/s (1 Bft) S 180 0 min 10,2 C 15,0 C 0,0 m/s (0 Bft)
2021-09-25 19:25 21,6 C 15,1 C 19,7 C -0,1 C 0,0 C 0,0 C 14,2 C 12,5 C 0,0 C 73 % 55 % 0 % 0 % 0 % 0,0 mm 0,9 m/s (1 Bft) W 270 0 min 10,3 C 15,1 C 1,7 m/s (2 Bft)
2021-09-25 19:20 21,6 C 15,3 C 19,9 C 0,6 C 0,0 C 0,0 C 14,4 C 12,5 C 0,0 C 73 % 55 % 0 % 0 % 0 % 0,0 mm 0,7 m/s (1 Bft) W-SW 247 0 min 10,5 C 15,3 C 1,1 m/s (1 Bft)
2021-09-25 19:15 21,6 C 15,3 C 20,0 C 2,3 C 0,0 C 0,0 C 14,4 C 12,6 C 0,0 C 72 % 55 % 0 % 0 % 0 % 0,0 mm 0,4 m/s (1 Bft) W-SW 247 0 min 10,3 C 15,3 C 0,8 m/s (1 Bft)
2021-09-25 19:10 21,6 C 15,5 C 20,1 C 3,3 C 0,0 C 0,0 C 14,6 C 12,8 C 0,0 C 72 % 55 % 0 % 0 % 0 % 0,0 mm 0,5 m/s (1 Bft) W 270 0 min 10,5 C 15,5 C 0,4 m/s (1 Bft)
2021-09-25 19:05 21,6 C 15,6 C 20,2 C 5,4 C 0,0 C 0,0 C 14,8 C 13,2 C 0,0 C 71 % 55 % 0 % 0 % 0 % 0,0 mm 0,8 m/s (1 Bft) W-SW 247 0 min 10,4 C 15,6 C 0,4 m/s (1 Bft)
2021-09-25 19:00 21,6 C 15,7 C 20,4 C 7,2 C 0,0 C 0,0 C 14,9 C 13,4 C 0,0 C 70 % 55 % 0 % 0 % 0 % 0,0 mm 1,0 m/s (1 Bft) W 270 0 min 10,2 C 15,7 C 0,9 m/s (1 Bft)
2021-09-25 18:55 21,6 C 15,8 C 20,5 C 10,4 C 0,0 C 0,0 C 15,1 C 13,7 C 0,0 C 70 % 55 % 0 % 0 % 0 % 0,0 mm 1,4 m/s (1 Bft) W-SW 247 0 min 10,3 C 15,8 C 0,8 m/s (1 Bft)
2021-09-25 18:50 21,6 C 15,9 C 20,6 C 13,9 C 0,0 C 0,0 C 15,2 C 13,9 C 0,0 C 70 % 55 % 0 % 0 % 0 % 0,0 mm 1,8 m/s (2 Bft) W-SW 247 0 min 10,4 C 15,9 C 1,5 m/s (1 Bft)
2021-09-25 18:45 21,7 C 16,1 C 20,8 C 17,8 C 0,0 C 0,0 C 15,4 C 14,1 C 0,0 C 69 % 55 % 5 % 0 % 0 % 0,0 mm 1,7 m/s (2 Bft) W-SW 247 0 min 10,4 C 16,1 C 2,9 m/s (2 Bft)
2021-09-25 18:40 21,7 C 16,0 C 21,1 C 20,4 C 0,0 C 0,0 C 15,4 C 14,3 C 0,0 C 69 % 55 % 9 % 0 % 0 % 0,0 mm 1,4 m/s (1 Bft) W-SW 247 5 min 10,3 C 16,0 C 1,5 m/s (1 Bft)
2021-09-25 18:35 21,7 C 16,2 C 21,2 C 26,0 C 0,0 C 0,0 C 15,6 C 14,5 C 0,0 C 68 % 55 % 18 % 0 % 0 % 0,0 mm 1,3 m/s (1 Bft) S-SW 202 5 min 10,3 C 16,2 C 1,2 m/s (1 Bft)
2021-09-25 18:30 21,7 C 16,4 C 21,3 C 29,2 C 0,0 C 0,0 C 15,8 C 14,6 C 0,0 C 68 % 55 % 23 % 0 % 0 % 0,0 mm 1,3 m/s (1 Bft) SW 225 5 min 10,5 C 16,4 C 0,6 m/s (1 Bft)
2021-09-25 18:25 21,7 C 16,4 C 21,5 C 31,7 C 0,0 C 0,0 C 15,9 C 14,8 C 0,0 C 68 % 55 % 27 % 0 % 0 % 0,0 mm 1,3 m/s (1 Bft) S-SW 202 5 min 10,5 C 16,4 C 2,5 m/s (2 Bft)
2021-09-25 18:20 21,7 C 16,4 C 21,6 C 32,9 C 0,0 C 0,0 C 16,0 C 15,1 C 0,0 C 68 % 55 % 29 % 0 % 0 % 0,0 mm 1,6 m/s (2 Bft) S 180 5 min 10,5 C 16,4 C 1,3 m/s (1 Bft)
2021-09-25 18:15 21,8 C 16,7 C 21,7 C 36,0 C 0,0 C 0,0 C 16,2 C 15,3 C 0,0 C 67 % 55 % 34 % 0 % 0 % 0,0 mm 2,2 m/s (2 Bft) SW 225 5 min 10,5 C 16,7 C 1,8 m/s (2 Bft)
2021-09-25 18:10 21,8 C 16,7 C 21,9 C 37,9 C 0,0 C 0,0 C 16,3 C 15,4 C 0,0 C 67 % 55 % 37 % 0 % 0 % 0,0 mm 2,2 m/s (2 Bft) SW 225 5 min 10,5 C 16,7 C 1,5 m/s (1 Bft)
2021-09-25 18:05 21,8 C 16,8 C 22,0 C 40,7 C 0,0 C 0,0 C 16,4 C 15,5 C 0,0 C 66 % 55 % 42 % 0 % 0 % 0,0 mm 2,4 m/s (2 Bft) W-SW 247 5 min 10,4 C 16,8 C 2,4 m/s (2 Bft)
2021-09-25 18:00 21,8 C 16,9 C 22,1 C 41,5 C 0,0 C 0,0 C 16,4 C 15,5 C 0,0 C 66 % 55 % 43 % 0 % 0 % 0,0 mm 2,5 m/s (2 Bft) W-SW 247 5 min 10,5 C 16,9 C 2,7 m/s (2 Bft)
2021-09-25 17:55 21,8 C 17,1 C 22,3 C 44,7 C 0,0 C 0,0 C 16,6 C 15,6 C 0,0 C 66 % 55 % 49 % 0 % 0 % 0,0 mm 2,4 m/s (2 Bft) W-SW 247 5 min 10,7 C 17,1 C 4,1 m/s (3 Bft)
2021-09-25 17:50 21,8 C 17,2 C 22,3 C 45,2 C 0,0 C 0,0 C 16,7 C 15,6 C 0,0 C 66 % 55 % 49 % 0 % 0 % 0,0 mm 2,2 m/s (2 Bft) NW 315 5 min 10,8 C 17,2 C 3,0 m/s (2 Bft)
2021-09-25 17:45 21,8 C 17,3 C 22,5 C 46,0 C 0,0 C 0,0 C 16,8 C 15,9 C 0,0 C 65 % 55 % 51 % 0 % 0 % 0,0 mm 2,4 m/s (2 Bft) SW 225 5 min 10,7 C 17,3 C 3,3 m/s (2 Bft)
2021-09-25 17:40 21,8 C 17,4 C 22,5 C 47,3 C 0,0 C 0,0 C 16,9 C 16,0 C 0,0 C 65 % 55 % 53 % 0 % 0 % 0,0 mm 2,8 m/s (2 Bft) W 270 5 min 10,8 C 17,4 C 4,0 m/s (3 Bft)
2021-09-25 17:35 21,8 C 17,6 C 22,7 C 48,2 C 0,0 C 0,0 C 17,3 C 16,5 C 0,0 C 64 % 55 % 54 % 0 % 0 % 0,0 mm 3,4 m/s (3 Bft) S 180 5 min 10,7 C 17,6 C 2,5 m/s (2 Bft)
2021-09-25 17:30 21,8 C 17,8 C 22,7 C 50,8 C 0,0 C 0,0 C 17,5 C 16,6 C 0,0 C 64 % 55 % 59 % 0 % 0 % 0,0 mm 3,7 m/s (3 Bft) S-SW 202 5 min 10,9 C 17,8 C 3,9 m/s (3 Bft)
2021-09-25 17:25 21,8 C 18,0 C 22,8 C 51,6 C 0,0 C 0,0 C 17,7 C 17,0 C 0,0 C 64 % 55 % 60 % 0 % 0 % 0,0 mm 2,9 m/s (2 Bft) W-SW 247 5 min 11,1 C 18,0 C 4,3 m/s (3 Bft)
2021-09-25 17:20 21,8 C 18,0 C 22,8 C 52,1 C 0,0 C 0,0 C 17,7 C 17,0 C 0,0 C 64 % 55 % 61 % 0 % 0 % 0,0 mm 3,0 m/s (2 Bft) SW 225 0 min 11,1 C 18,0 C 6,2 m/s (4 Bft)
2021-09-25 17:15 21,8 C 18,1 C 22,9 C 52,1 C 0,0 C 0,0 C 17,6 C 16,7 C 0,0 C 64 % 55 % 61 % 0 % 0 % 0,0 mm 3,2 m/s (2 Bft) W-SW 247 0 min 11,2 C 18,1 C 1,6 m/s (1 Bft)
2021-09-25 17:10 21,7 C 18,1 C 23,0 C 52,4 C 0,0 C 0,0 C 17,6 C 16,7 C 0,0 C 64 % 55 % 61 % 0 % 0 % 0,0 mm 3,1 m/s (2 Bft) S 180 0 min 11,2 C 18,1 C 2,5 m/s (2 Bft)
2021-09-25 17:05 21,7 C 18,3 C 23,0 C 51,9 C 0,0 C 0,0 C 17,9 C 17,1 C 0,0 C 63 % 55 % 60 % 0 % 0 % 0,0 mm 2,9 m/s (2 Bft) SW 225 0 min 11,1 C 18,3 C 3,4 m/s (2 Bft)
2021-09-25 17:00 21,7 C 18,6 C 23,1 C 52,3 C 0,0 C 0,0 C 18,3 C 17,6 C 0,0 C 63 % 56 % 61 % 0 % 0 % 0,0 mm 3,1 m/s (2 Bft) W-SW 247 0 min 11,4 C 18,6 C 3,3 m/s (2 Bft)
2021-09-25 16:55 21,7 C 18,7 C 23,1 C 52,2 C 0,0 C 0,0 C 18,4 C 17,7 C 0,0 C 63 % 56 % 61 % 0 % 0 % 0,0 mm 2,8 m/s (2 Bft) W-SW 247 0 min 11,5 C 18,7 C 1,1 m/s (1 Bft)
2021-09-25 16:50 21,7 C 18,9 C 23,1 C 52,4 C 0,0 C 0,0 C 18,4 C 17,5 C 0,0 C 63 % 56 % 61 % 0 % 0 % 0,0 mm 2,8 m/s (2 Bft) W-SW 247 0 min 11,7 C 18,9 C 4,2 m/s (3 Bft)
2021-09-25 16:45 21,7 C 18,6 C 23,1 C 52,0 C 0,0 C 0,0 C 18,0 C 16,9 C 0,0 C 63 % 56 % 61 % 0 % 0 % 0,0 mm 2,9 m/s (2 Bft) SW 225 0 min 11,4 C 18,6 C 4,2 m/s (3 Bft)
2021-09-25 16:40 21,7 C 18,7 C 23,1 C 52,3 C 0,0 C 0,0 C 18,2 C 17,3 C 0,0 C 63 % 56 % 61 % 0 % 0 % 0,0 mm 2,7 m/s (2 Bft) S-SW 202 0 min 11,5 C 18,7 C 2,7 m/s (2 Bft)
2021-09-25 16:35 21,7 C 18,8 C 23,1 C 52,2 C 0,0 C 0,0 C 18,3 C 17,2 C 0,0 C 64 % 56 % 61 % 0 % 0 % 0,0 mm 2,6 m/s (2 Bft) S-SW 202 0 min 11,8 C 18,8 C 2,6 m/s (2 Bft)
2021-09-25 16:30 21,7 C 18,7 C 23,1 C 52,3 C 0,0 C 0,0 C 18,2 C 17,1 C 0,0 C 63 % 56 % 61 % 0 % 0 % 0,0 mm 2,9 m/s (2 Bft) W-SW 247 0 min 11,5 C 18,7 C 2,6 m/s (2 Bft)
2021-09-25 16:25 21,6 C 18,9 C 23,1 C 52,3 C 0,0 C 0,0 C 18,3 C 17,0 C 0,0 C 63 % 56 % 61 % 0 % 0 % 0,0 mm 3,1 m/s (2 Bft) W-SW 247 0 min 11,7 C 18,9 C 3,5 m/s (3 Bft)
2021-09-25 16:20 21,6 C 18,7 C 23,1 C 52,4 C 0,0 C 0,0 C 18,1 C 16,8 C 0,0 C 63 % 55 % 61 % 0 % 0 % 0,0 mm 3,3 m/s (2 Bft) SW 225 0 min 11,5 C 18,7 C 3,3 m/s (2 Bft)
2021-09-25 16:15 21,6 C 18,8 C 23,1 C 52,8 C 0,0 C 0,0 C 18,2 C 16,8 C 0,0 C 62 % 56 % 62 % 0 % 0 % 0,0 mm 3,4 m/s (2 Bft) S-SE 157 0 min 11,4 C 18,8 C 3,5 m/s (3 Bft)
2021-09-25 16:10 21,6 C 18,9 C 23,2 C 52,7 C 0,0 C 0,0 C 18,2 C 16,9 C 0,0 C 62 % 55 % 62 % 0 % 0 % 0,0 mm 3,1 m/s (2 Bft) SW 225 0 min 11,5 C 18,9 C 3,2 m/s (2 Bft)
2021-09-25 16:05 21,6 C 18,8 C 23,2 C 52,4 C 0,0 C 0,0 C 18,1 C 16,7 C 0,0 C 62 % 55 % 61 % 0 % 0 % 0,0 mm 3,4 m/s (3 Bft) S 180 0 min 11,4 C 18,8 C 2,1 m/s (2 Bft)
2021-09-25 16:00 21,6 C 18,8 C 23,3 C 52,4 C 0,0 C 0,0 C 18,1 C 16,6 C 0,0 C 61 % 55 % 61 % 0 % 0 % 0,0 mm 3,4 m/s (2 Bft) S-SW 202 0 min 11,1 C 18,8 C 1,5 m/s (1 Bft)
_ Min-Time 05:00 04:50 06:20 23:35 16:00 16:00 04:50 04:30 16:00 16:00 16:00 - 16:00 16:00 - 19:40 - - - 04:50 04:50 19:30
Minimum _ 20,8 C 8,0 C 12,2 C -0,9 C 0,0 C 0,0 C 7,8 C 7,4 C 0,0 C 61 % 55 % - 0 % 0 % - 0,0 m/s (0 Bft) - - - 5,6 C 8,0 C 0,0 m/s (0 Bft)
_ Max-Time 12:30 12:10 13:20 12:15 16:00 16:00 12:05 12:05 16:00 07:50 10:35 12:15 16:00 16:00 16:00 17:30 - - 17:25 10:10 12:10 17:20
Maximum _ 22,1 C 20,9 C 24,6 C 53,0 C 0,0 C 0,0 C 21,5 C 21,5 C 0,0 C 88 % 65 % 62 % 0 % 0 % 0,0 mm 3,7 m/s
S-SW (3 Bft)
- - 5 min 13,3 C 20,9 C 6,2 m/s
SW (4 Bft)
Average _ 21,4 C 13,8 C 17,8 C 24,3 C 0,0 C 0,0 C 13,6 C 12,9 C 0,0 C 76 % 58 % #1:05 h 0 % 0 % #0,0 mm 0,9 m/s (1 Bft) N-NE - #1:05 h 9,4 C 13,8 C 0,8 m/s (1 Bft)